Regional Weather Roundup
Issued by NWS

Home | Current Version | Previous Version | Text Only | Print | Product List | Glossary On
Versions: 1 2 3 4 5 6 7 8 9 10 11 12 13 14 15 16 17 18 19 20 21 22 23 24 25 26 27 28 29 30 31 32 33 34 35 36 37 38 39 40 41 42 43 44 45 46 47 48 49 50
000
ASHW40 PHFO 240910
RWRHI

WEATHER ROUNDUP FOR HAWAII
NATIONAL WEATHER SERVICE HONOLULU HI
1100 PM HST SAT MAY 23 2015

THIS IS AN AUTOMATED REPORT THAT HAS NOT BEEN QUALITY CONTROLLED.

NOTE..."FAIR" INDICATES FEW OR NO CLOUDS BELOW 12,000 FEET WITH NO
SIGNIFICANT WEATHER AND/OR OBSTRUCTIONS TO VISIBILITY.

* - THESE SITES REPORT LIMITED FIELDS

HIZ001>004-241000-
KAUAI-NIIHAU-

CITY           SKY/WX    TMP DP  RH WIND       PRES   REMARKS
LIHUE APT      MOCLDY    70  57  63 N14       30.13S
PORT ALLEN*    NOT AVBL
POIPU*           N/A     72 N/A N/A NE8G16      N/A
PRINCEVILLE*     N/A     72 N/A N/A MISG        N/A
KOKOLE POINT*  NOT AVBL
MOLOAA DAIRY*  NOT AVBL
WAIMEA HTS*    NOT AVBL
PUU OPAE*      NOT AVBL
PUU LUA*       NOT AVBL
MAKAHA RIDGE*  NOT AVBL
$$

HIZ005>011-241000-
OAHU-

CITY           SKY/WX    TMP DP  RH WIND       PRES   REMARKS
HONOLULU       PTCLDY    73  59  61 N5        30.10S
KALAELOA       CLEAR     70  58  65 VRB5      30.11S
KANEOHE MCB    CLOUDY    73  61  65 NE15G23   30.08S
WHEELER FIELD  FAIR      66  59  77 N6        30.10S
BELLOWS*       NOT AVBL
KAHUKU*        NOT AVBL
WHEELER*       NOT AVBL
WAIANAE HARBOR NOT AVBL
DILLINGHAM*      N/A     70  59  68 MISG        N/A
KAHUKU TRN*      N/A     70  57  64 NE6G15      N/A
KAWAILOA*        N/A     66  59  77 NE8G18      N/A
KII*             N/A    N/A N/A N/A NE14G21     N/A
MAKUA RANGE*     N/A     72  59  64 E9G26       N/A
OAHU FOREST NW NOT AVBL
SCHOFIELD BRK*   N/A     63  57  82 MISG        N/A
SCHOFIELD S*   NOT AVBL
WAIANAE VLY*   NOT AVBL
KUAOKALA*      NOT AVBL
HONOULIUULI*   NOT AVBL
MOKUOLOE IS*   NOT AVBL
PALEHUA*       NOT AVBL
WAIAWA PHB*    NOT AVBL
$$

HIZ012>013-241000-
MOLOKAI-

CITY           SKY/WX    TMP DP  RH WIND       PRES   REMARKS
MOLOKAI AIRPT  PTCLDY    70  58  65 N8        30.11S
KALAUPAPA      NOT AVBL
MAKAPULAPAI*   NOT AVBL
MOLOKAI 1*     NOT AVBL
PUU ALII*      NOT AVBL
$$

HIZ016-241000-
KAHOOLAWE-

CITY           SKY/WX    TMP DP  RH WIND       PRES   REMARKS
KAHOOLAWE*     NOT AVBL
HAKIOAWA*      NOT AVBL
HONOKANAIA*      N/A     72  60  67 N16G29    30.09R
KANELOA*         N/A    N/A N/A N/A N20G31    30.13R
KEALIALALO*    NOT AVBL
LUA MAKIKA*    NOT AVBL
$$

HIZ014>015-241000-
LANAI-

CITY           SKY/WX    TMP DP  RH WIND       PRES   REMARKS
LANAI CITY     FAIR      66  59  78 NE17G23   30.12S
LANAI 1*       NOT AVBL
$$

HIZ017>028-241000-
MAUI-

CITY           SKY/WX    TMP DP  RH WIND       PRES   REMARKS
KAHULUI        CLOUDY    73  62  68 NE13      30.11R
KAPALUA-W MAUI NOT AVBL
HANA AIRPORT   CLOUDY    66  64  94 W3        30.13F
HANA*          NOT AVBL
HALEAKALA SUMM   N/A     43  -4  14 NW16        N/A
MAALAEA BAY*   NOT AVBL
HALEAKALA*     NOT AVBL
KAUPO GAP*     NOT AVBL
KULA 1*          N/A     51   2  13 E3          N/A
$$

HIZ023>026-241000-
BIG ISLAND OF HAWAII COAST AND LOWER SLOPES-

CITY           SKY/WX    TMP DP  RH WIND       PRES   REMARKS
KAILUA KONA    PTCLDY    77  65  66 SE3       30.05R
HILO           CLOUDY    71  64  78 N8        30.09S
HONOKAA*       NOT AVBL
KAWAIHAE MWT*  NOT AVBL
KAWAIHAE*        N/A     77 N/A N/A W3          N/A
SOUTH POINT*   NOT AVBL
UPOLU AIRPORT* NOT AVBL
KAMUELA*       CLOUDY    61  59  94 NE8       30.17S
HAKALAU*         N/A     46  46 100 W2          N/A
KALOKO-HONOKO* NOT AVBL
PALI 2*          N/A     63  59  88 N12G20      N/A
KEALAKOMO*       N/A     90  75  62 N22G35      N/A  HX 100
KAUPULEHU*     NOT AVBL
KAPAPALA*        N/A     65  64  97 N2          N/A
LOWER KAHUKU*  NOT AVBL
PUHE CS*       NOT AVBL
PUHO CS*       NOT AVBL
PTA KEAMUKU*     N/A     57  54  88 CALM        N/A
WAIKOLOA*      NOT AVBL
$$

HIZ027>028-241000-
BIG ISLAND OF HAWAII INTERIOR AND SUMMMITS-

CITY           SKY/WX    TMP DP  RH WIND       PRES   REMARKS
BRADSHAW FIELD MOCLDY    50  48  93 N2        30.35R
MK VISITOR CEN NOT AVBL
MAUNA KEA*       N/A     37   9  30 N17         N/A  WCI  28
MAUNA LOA*       N/A     45  -8  11 MISG        N/A
MAUNA LOA 1*   NOT AVBL
PTA KIPUKA*      N/A     55  55 100 SW1         N/A
PTA RANGE 17*    N/A     54  52  94 NW3         N/A
PTA WEST*        N/A     70  68  94 NW2         N/A
NENE CABIN*    NOT AVBL
AHUMOA*        NOT AVBL
PTA PORTABLE*  NOT AVBL
PUU MALI*        N/A     46  46 100 NW1         N/A
$$

HIC003-241000-
NORTHWEST ISLANDS-

CITY           SKY/WX    TMP DP  RH WIND       PRES   REMARKS
MIDWAY ISLAND  CLEAR    N/A N/A N/A E13       30.31R
MIDWAY NOS*    NOT AVBL
FRENCH FRIGATE NOT AVBL
$$

PHZ110>124-180-241000-
BUOY REPORTS

STATION/POSITION TIME  TEMP    WIND        PRES    WAVE   SWELL
                       AIR SEA DIR/SP/G            HT/PER HT/DIR
                 (UTC) (F)     (DEG/KT/KT) (MB)    (FT/S) (FT/D)
BUOY 51001       NOT AVBL
BUOY 51101       0900   72 76   40/ 16/ 19 1021.5R   7/11   5/350
BUOY 51100       NOT AVBL
BUOY 51002       0900   78 79   90/  6/  8 1017.4R   6/14   5/170
BUOY 51003       0800   77 79   50/ 17/ 21 1018.1R   7/ 9   5
BUOY 51004       0810   77 79  100/  4/  6 1017.4    4/16   5/170
BARBERS PT BUOY  NOT AVBL
WAIMEA BAY BUOY  0900      77                N/A     7/ 8   2/ 10
KAILUA BAY BUOY  0900      77                N/A     6/ 9   2/ 10
LANAI BUOY       NOT AVBL
BARBERS PT 2     0900      77                N/A     4/17   3/200
PAUWELA MAUI     0900      77                N/A     6/ 8   2/350
HILO             0900      78                N/A     5/ 9   2/360
KANEOHE BAY BUOY 0900      77                N/A     6/ 9   2/ 10
HANALEI KAUAI    0900      78                N/A     7/10
KAHULUI HARBOR   0900   74 78   20/ 13/ 15 1019.3S
HONOLULU HARBOR  0900   73 77   60/  3/  6 1019.2S
KILO NALU        NOT AVBL
HILO HARBOR      0900   71 77  360/ 12/ 14 1018.5S
MOKUOLOE         0900   74 78   40/ 13/ 16 1019.6S
NAWILIWILI       0900   71 79  350/  4/  7 1020.1S
WHOTS BUOY       NOT AVBL
BUOY 51028       NOT AVBL
$$

......................KEY........................................
  SKY/WX - SKY CONDITIONS/PRESENT WEATHER
  TMP    - TEMPERATURE IN FAHRENHEIT
  DWPT   - DEWPOINT IN FAHRENHEIT
  RH     - RELATIVE HUMIDITY IN PERCENT
  WIND   - DIRECTION AND SPEED /MPH FOR ISLANDS...KTS FOR BUOYS/
  PRES   - MEAN SEA LEVEL PRESSURE IN INCHES OF HG
  VSB    - VISIBILITY IN MILES
  HX     - HEAT INDEX
  WCI    - WIND CHILL INDEX
  VRB    - VARIABLE WIND DIRECTION
  N/A    - NOT AVAILABLE


USA.gov is the U.S. government's official web portal to all federal, state and local government web resources and services.